Regional Weather Roundup
Issued by NWS

Home | Current Version | Previous Version | Graphics & Text | Print | Product List | Glossary On
Versions: 1 2 3 4 5 6 7 8 9 10 11 12 13 14 15 16 17 18 19 20 21 22 23 24 25 26 27 28 29 30 31 32 33 34 35 36 37 38 39 40 41 42 43 44 45 46 47 48 49 50
082
ASUS43 KTOP 131659
RWRKS

WEATHER ROUNDUP FOR KANSAS
NATIONAL WEATHER SERVICE GOODLAND KS
1100 AM CST SAT FEB 13 2016

NOTE:  "FAIR" INDICATES FEW OR NO CLOUDS BELOW 12,000 FEET WITH NO
SIGNIFICANT WEATHER AND/OR OBSTRUCTIONS TO VISIBILITY.

KSZ001>006-013>018-027>032-041>047-131800-
NORTHWEST KANSAS

CITY           SKY/WX    TMP DP  RH WIND       PRES   REMARKS
GOODLAND       FOG       26  25  96 S17       30.16F VSB 1/4 WCI  13
HAYS           CLOUDY    27   9  46 S18       30.35F WCI  13
HILL CITY      CLOUDY    24  17  74 SE15      30.33F WCI  11
RUSSELL        CLOUDY    25  13  60 SE15      30.37F WCI  13
$$

KSZ061>065-074>080-084>089-131800-
SOUTHWEST KANSAS

CITY           SKY/WX    TMP DP  RH WIND       PRES   REMARKS
DODGE CITY     CLOUDY    28  18  66 SE21G28   30.30F WCI  15
ELKHART          N/A     44  29  55 S24         N/A
GARDEN CITY    CLOUDY    27  22  81 S18G26    30.24F WCI  14
GREAT BEND     CLOUDY    28   9  43 S18       30.38F WCI  16
LIBERAL        CLOUDY    34  27  75 SE20G26   30.22F WCI  22
$$

KSZ066>073-081>083-090>101-131800-
SOUTHEAST KANSAS

CITY           SKY/WX    TMP DP  RH WIND       PRES   REMARKS
CHANUTE        MOSUNNY   30   4  33 E8        30.51F
COFFEYVILLE    MOSUNNY   32   7  35 E12       30.51F WCI  23
HUTCHINSON     MOSUNNY   30   6  36 SE12      30.43F WCI  20
MEDICINE LODGE   N/A     30  12  47 SE12G17   30.41F WCI  20
NEWTON         PTSUNNY   28   7  40 SE10G18   30.45F WCI  19
PARSONS        CLOUDY    30   4  33 E8        30.51F
WICHITA INTL   PTSUNNY   32   4  30 E10       30.45F WCI  24
WICHITA JABRA  SUNNY     30   4  33 E12       30.44F WCI  20
WINFIELD       MOSUNNY   33   2  26 SE13      30.46F WCI  24
$$

KSZ007>012-019>026-033>040-048>060-102>105-131800-
NORTHEAST KANSAS

CITY           SKY/WX    TMP DP  RH WIND       PRES   REMARKS
CONCORDIA      CLOUDY    21   2  43 SE12      30.44F WCI   9
EMPORIA        PTSUNNY   26   2  35 E15       30.48F WCI  14
LAWRENCE       CLOUDY    21   1  41 E12       30.57S WCI   9
MANHATTAN      CLOUDY    23   4  44 E12       30.50F WCI  12
OLATHE IND     CLOUDY    19   3  49 E9        30.56S
OLATHE EXE     CLOUDY    19   1  45 E10       30.55S WCI   7
SALINA         CLOUDY    27   3  35 SE10      30.47F WCI  17
TOPEKA BILLARD CLOUDY    23   1  38 E8        30.55F
TOPEKA FORBES  CLOUDY    23   3  42 E9        30.52F
$$




USA.gov is the U.S. government's official web portal to all federal, state and local government web resources and services.